Meteo Giornale » Osservazioni meteo Italia » Firenze-Peretola

ore: 23:20 - Osservazioni Meteo Firenze-Peretola
Lat. 43° 48' N Lon. 11° 12' E Alt. 40 metri s.l.m.

poco_nuvoloso Europe/Rome

11 °C

Poco Nuvoloso

Temp. 24 Ore

11 °C

15 °C

Nord/Nord-Est

20.3 Km/h

Dew point 4 °C

Umidità 61 %

Visibilità  10 Km

Il sole sorge alle ore 07:09

Il sole tramonta alle ore 16:50

Data e Ora Cielo e Fenomeni T °C DP °C Um. % Pres. hPa Vis. km Vento km/h
Oggi h: 23:20 poco_nuvoloso Poco Nuvoloso 11 4 61 1024 10 N/NE 20.3
Oggi h: 22:50 poco_nuvoloso Poco Nuvoloso 11 3 57 1024 10 N 3.7
Oggi h: 22:20 poco_nuvoloso Poco Nuvoloso 11 2 53 1024 10 S 7.4
Oggi h: 21:50 nuvoloso Nuvoloso 11 3 57 1024 10 E 9.3
Oggi h: 21:20 sereno Sereno 11 2 53 1024 10 N/NE 14.8
Oggi h: 20:50 poco_nuvoloso Poco Nuvoloso 11 3 57 1024 10 N/NE 16.7
Oggi h: 20:20 poco_nuvoloso Poco Nuvoloso 12 3 54 1024 10 N/NE 20.3
Oggi h: 19:50 nuvoloso Nuvoloso 12 3 54 1024 10 N/NE 20.3
Oggi h: 19:20 nuvoloso Nuvoloso 12 3 54 1024 10 N/NE 22.2
Oggi h: 18:20 nuvoloso Nuvoloso 12 4 57 1024 10 N 22.2
Oggi h: 17:50 molto_nuvoloso Molto Nuvoloso 13 4 54 1024 10 N/NE 24
Oggi h: 17:20 nuvoloso Nuvoloso 13 4 54 1024 10 N/NE 16.7
Oggi h: 16:50 nuvoloso Nuvoloso 13 4 54 1024 10 N/NE 14.8
Oggi h: 16:20 nuvoloso Nuvoloso 13 3 50 1023 10 N/NE 14.8
Oggi h: 15:50 nuvoloso Nuvoloso 13 3 50 1023 10 N 20.3
Oggi h: 15:20 nuvoloso Nuvoloso 14 3 47 1023 10 N 22.2
Oggi h: 14:50 poco_nuvoloso Poco Nuvoloso 15 3 44 1023 10 N 16.7
Oggi h: 14:20 poco_nuvoloso Poco Nuvoloso 15 2 41 1024 10 N/NE 22.2
Oggi h: 13:50 nuvoloso Nuvoloso 14 3 47 1024 10 N/NE 22.2
Oggi h: 13:20 nuvoloso Nuvoloso 14 4 50 1024 10 NE 24
Oggi h: 12:50 nuvoloso Nuvoloso 14 4 50 1024 10 N/NE 18.5
Oggi h: 12:20 poco_nuvoloso Poco Nuvoloso 14 4 50 1024 10 N/NE 14.8
Oggi h: 11:50 poco_nuvoloso Poco Nuvoloso 15 4 47 1024 10 NE 24
Oggi h: 11:20 poco_nuvoloso Poco Nuvoloso 15 3 44 1024 10 NE 31.5
Oggi h: 10:20 poco_nuvoloso Poco Nuvoloso 15 5 51 1024 10 NE 27.8
Oggi h: 09:50 poco_nuvoloso Poco Nuvoloso 15 4 47 1024 10 NE 27.8
Oggi h: 09:20 poco_nuvoloso Poco Nuvoloso 14 5 54 1024 10 NE 18.5
Oggi h: 08:50 poco_nuvoloso Poco Nuvoloso 14 4 50 1024 10 E/NE 14.8
Oggi h: 08:20 poco_nuvoloso Poco Nuvoloso 14 5 54 1024 10 NE 24
Oggi h: 07:50 poco_nuvoloso Poco Nuvoloso 13 6 62 1024 10 N 11.1
Oggi h: 07:20 poco_nuvoloso Poco Nuvoloso 13 6 62 1023 10 N 13
Oggi h: 06:50 nuvoloso Nuvoloso 13 6 62 1023 10 N 5.5
Oggi h: 06:20 molto_nuvoloso Molto Nuvoloso 13 5 58 1023 10 N/NE 11.1
Oggi h: 05:50 nuvoloso Nuvoloso 13 5 58 1023 10 N/NE 20.3
Oggi h: 05:20 poco_nuvoloso Poco Nuvoloso 12 5 62 1023 10 E/NE 9.3
Oggi h: 04:50 sereno Sereno 13 5 58 1023 10 N/NE 9.3
Oggi h: 04:20 sereno Sereno 11 5 66 1023 10 N 3.7
Oggi h: 03:50 sereno Sereno 11 6 71 1023 10 N 5.5
Oggi h: 03:20 sereno Sereno 13 5 58 1023 10 N 3.7
Oggi h: 02:50 sereno Sereno 13 5 58 1023 10 NE 11.1
Oggi h: 02:20 sereno Sereno 13 6 62 1023 10 E/NE 9.3
Oggi h: 01:50 sereno Sereno 13 6 62 1023 10 N/NE 7.4
Oggi h: 01:20 sereno Sereno 13 6 62 1022 10 N 5.5
Oggi h: 00:50 sereno Sereno 14 6 58 1022 10 NE 14.8
Oggi h: 00:20 sereno Sereno 14 6 58 1022 10 N/NE 11.1
Ieri h: 23:50 sereno Sereno 14 6 58 1022 10 NE 14.8
Ieri h: 23:20 sereno Sereno 14 7 62 1022 10 N 5.5
Ieri h: 22:50 sereno Sereno 12 7 71 1022 10 S 11.1